FW1648 Weather Reports


time (UTC)temp
C
wind
direction
speed
KPH
gust
KPH
rain 1hr
cm
rain 24hr
cm
rain mn
cm
humidity
%
barometer
mb
20260503005305 5 243 0.0 0.0 0.00 0.00 0.00 63 1016.2
20260503004805 6 243 0.0 0.0 0.00 0.00 0.00 63 1016.1
20260503004305 6 243 0.0 0.0 0.00 0.00 0.00 60 1016.1
20260503003805 6 243 0.0 0.0 0.00 0.00 0.00 58 1016.1
20260503003305 7 243 0.0 3.2 0.00 0.00 0.00 58 1016.1
20260503002805 7 243 0.0 0.0 0.00 0.00 0.00 57 1016.1
20260503002306 7 243 0.0 0.0 0.00 0.00 0.00 56 1016.1
20260503001805 7 243 0.0 1.6 0.00 0.00 0.00 55 1016.1
20260503001306 7 243 0.0 4.8 0.00 0.00 0.00 54 1016.1
20260503000806 7 243 1.6 4.8 0.00 0.00 0.00 54 1016.0
20260503000305 7 248 0.0 3.2 0.00 0.00 0.00 54 1016.0
20260502234805 7 248 1.6 8.0 0.00 0.00 0.00 52 1016.1
20260502234305 8 248 3.2 4.8 0.00 0.00 0.00 52 1016.1
20260502233805 8 253 3.2 4.8 0.00 0.00 0.00 52 1016.1
20260502232806 8 226 3.2 9.7 0.00 0.00 0.00 50 1016.1
20260502232305 8 241 3.2 12.9 0.00 0.00 0.00 52 1016.1
20260502231805 8 229 3.2 8.0 0.00 0.00 0.00 50 1016.2
20260502231305 8 262 3.2 8.0 0.00 0.00 0.00 50 1016.2
20260502230806 8 279 1.6 4.8 0.00 0.00 0.00 51 1016.2
20260502225806 8 290 0.0 3.2 0.00 0.00 0.00 52 1016.3
20260502224806 8 306 1.6 4.8 0.00 0.00 0.00 51 1016.3
20260502224305 8 306 1.6 4.8 0.00 0.00 0.00 50 1016.3
20260502223805 8 304 3.2 9.7 0.00 0.00 0.00 49 1016.3
20260502223305 8 309 3.2 4.8 0.00 0.00 0.00 48 1016.3
20260502222806 8 283 1.6 4.8 0.00 0.00 0.00 51 1016.3
20260502222305 8 290 3.2 9.7 0.00 0.00 0.00 48 1016.3
20260502221806 8 324 1.6 8.0 0.00 0.00 0.00 49 1016.2
20260502221305 8 288 3.2 8.0 0.00 0.00 0.00 49 1016.2
20260502220805 8 339 1.6 8.0 0.00 0.00 0.00 51 1016.2
20260502220305 8 262 1.6 9.7 0.00 0.00 0.00 50 1016.2
20260502215305 8 324 1.6 4.8 0.00 0.00 0.00 51 1016.2
20260502214805 8 189 3.2 4.8 0.00 0.00 0.00 51 1016.2
20260502214305 8 306 1.6 8.0 0.00 0.00 0.00 50 1016.3
20260502213305 8 235 3.2 4.8 0.00 0.00 0.00 49 1016.3
20260502212806 8 280 3.2 9.7 0.00 0.00 0.00 48 1016.3
20260502212305 8 296 1.6 4.8 0.00 0.00 0.00 50 1016.3
20260502211805 8 269 3.2 8.0 0.00 0.00 0.00 50 1016.3
20260502211306 8 259 1.6 4.8 0.00 0.00 0.00 50 1016.4
20260502210805 8 322 1.6 4.8 0.00 0.00 0.00 48 1016.4
20260502210305 8 311 3.2 8.0 0.00 0.00 0.00 47 1016.5
20260502205805 8 308 3.2 4.8 0.00 0.00 0.00 48 1016.4
20260502205307 8 301 4.8 9.7 0.00 0.00 0.00 47 1016.4
20260502204805 8 310 3.2 8.0 0.00 0.00 0.00 48 1016.4
20260502204306 8 295 1.6 8.0 0.00 0.00 0.00 47 1016.5
20260502203805 8 332 1.6 8.0 0.00 0.00 0.00 49 1016.4
20260502203305 8 328 1.6 8.0 0.00 0.00 0.00 50 1016.6
20260502202805 8 309 3.2 4.8 0.00 0.00 0.00 48 1016.5
20260502202305 8 307 3.2 8.0 0.00 0.00 0.00 50 1016.6
20260502201805 8 304 3.2 11.3 0.00 0.00 0.00 48 1016.7
20260502201305 8 314 3.2 4.8 0.00 0.00 0.00 48 1016.7
20260502200805 8 303 1.6 4.8 0.00 0.00 0.00 51 1016.7
20260502200305 8 308 3.2 9.7 0.00 0.00 0.00 50 1016.8
20260502195305 8 305 3.2 9.7 0.00 0.00 0.00 48 1016.9
20260502194805 8 282 6.4 11.3 0.00 0.00 0.00 46 1016.9
20260502194305 8 277 3.2 9.7 0.00 0.00 0.00 49 1017.0
20260502193805 8 287 4.8 8.0 0.00 0.00 0.00 48 1017.0
20260502193305 8 295 4.8 4.8 0.00 0.00 0.00 47 1017.0
20260502192805 8 279 8.0 12.9 0.00 0.00 0.00 46 1017.1
20260502192305 8 258 3.2 9.7 0.00 0.00 0.00 47 1017.1
20260502191805 8 275 3.2 9.7 0.00 0.00 0.00 48 1017.2
20260502191305 8 289 3.2 9.7 0.00 0.00 0.00 48 1017.2
20260502190805 8 250 4.8 11.3 0.00 0.00 0.00 46 1017.3
20260502190305 8 299 1.6 12.9 0.00 0.00 0.00 49 1017.3
20260502185805 8 317 3.2 4.8 0.00 0.00 0.00 51 1017.3
20260502185306 8 303 1.6 8.0 0.00 0.00 0.00 49 1017.4
20260502184805 8 255 3.2 8.0 0.00 0.00 0.00 48 1017.4
20260502183806 8 289 1.6 4.8 0.00 0.00 0.00 47 1017.5
20260502182805 8 321 1.6 4.8 0.00 0.00 0.00 51 1017.5
20260502181305 8 246 3.2 8.0 0.00 0.00 0.00 48 1017.5
20260502180805 8 243 1.6 8.0 0.00 0.00 0.00 48 1017.5
20260502180305 8 276 3.2 8.0 0.00 0.00 0.00 51 1017.6
20260502170305 8 308 4.8 11.3 0.00 0.00 0.00 50 1018.0
20260502164305 7 5 0.0 4.8 0.00 0.00 0.00 56 1018.1
20260502163805 7 293 3.2 4.8 0.00 0.00 0.00 51 1018.2
20260502163305 7 295 3.2 4.8 0.00 0.00 0.00 52 1018.2
20260502162806 7 297 3.2 4.8 0.00 0.00 0.00 52 1018.2
20260502162305 7 338 1.6 8.0 0.00 0.00 0.00 50 1018.2
20260502161805 7 288 4.8 9.7 0.00 0.00 0.00 52 1018.2
20260502161307 7 248 3.2 9.7 0.00 0.00 0.00 51 1018.2
20260502160805 7 285 3.2 9.7 0.00 0.00 0.00 49 1018.3
20260502160305 8 316 1.6 8.0 0.00 0.00 0.00 50 1018.3
20260502152305 8 14 3.2 11.3 0.00 0.00 0.00 56 1018.1
20260502151805 7 20 3.2 11.3 0.00 0.00 0.00 57 1018.0
20260502151305 7 26 8.0 20.9 0.00 0.00 0.00 55 1017.9
20260502150306 6 284 3.2 8.0 0.00 0.00 0.00 59 1018.1
20260502130305 5 24 1.6 3.2 0.00 0.00 0.00 69 1018.1
20260502123805 4 328 1.6 4.8 0.00 0.00 0.00 76 1018.1
20260502123305 3 21 1.6 4.8 0.00 0.00 0.00 76 1018.1
20260502122805 3 298 1.6 4.8 0.00 0.00 0.00 76 1018.1
20260502122306 3 331 1.6 4.8 0.00 0.00 0.00 79 1018.1
20260502121805 3 346 0.0 4.8 0.00 0.00 0.00 80 1018.1
20260502120805 2 197 1.6 4.8 0.00 0.00 0.00 83 1018.0
20260502120306 2 22 0.0 3.2 0.00 0.00 0.00 83 1018.0
20260502115805 1 330 1.6 3.2 0.00 0.00 0.00 84 1018.0
20260502115306 1 349 0.0 3.2 0.00 0.00 0.00 85 1018.0
20260502113805 1 292 0.0 3.2 0.00 0.00 0.00 87 1017.9
20260502113305 0 302 1.6 4.8 0.00 0.00 0.00 88 1017.8
20260502112805 0 217 1.6 3.2 0.00 0.00 0.00 89 1017.8
20260502112306 0 249 0.0 3.2 0.00 0.00 0.00 89 1017.7
20260502111305 0 58 0.0 1.6 0.00 0.00 0.00 88 1017.7
20260502110805 0 58 0.0 0.0 0.00 0.00 0.00 88 1017.6
20260502110306 0 58 0.0 0.0 0.00 0.00 0.00 88 1017.6
20260502105805 0 58 0.0 0.0 0.00 0.00 0.00 88 1017.5
20260502104805 0 58 0.0 0.0 0.00 0.00 0.00 88 1017.5
20260502104305 0 58 0.0 0.0 0.00 0.00 0.00 87 1017.5
20260502103805 0 58 0.0 0.0 0.00 0.00 0.00 87 1017.5
20260502101804 0 58 0.0 0.0 0.00 0.00 0.00 86 1017.4
20260502100805 0 58 0.0 0.0 0.00 0.00 0.00 86 1017.4
20260502100305 1 58 0.0 0.0 0.00 0.00 0.00 86 1017.4
20260502091305 2 58 0.0 0.0 0.00 0.00 0.00 88 1017.1
20260502090805 2 58 0.0 0.0 0.00 0.00 0.00 88 1017.1
20260502090305 2 58 0.0 0.0 0.00 0.00 0.00 87 1017.0
20260502071305 3 45 0.0 0.0 0.00 0.03 0.00 84 1016.7
20260502070805 3 45 0.0 1.6 0.00 0.03 0.00 84 1016.7
20260502070305 3 45 0.0 1.6 0.00 0.03 0.00 84 1016.7
20260502065805 3 45 0.0 1.6 0.00 0.03 0.00 83 1016.6
20260502064305 3 44 0.0 3.2 0.00 0.03 0.00 82 1016.8
20260502063305 3 5 0.0 0.0 0.00 0.03 0.00 82 1016.9
20260502062805 3 5 0.0 1.6 0.00 0.03 0.00 81 1016.9
20260502062306 3 75 1.6 3.2 0.00 0.03 0.00 81 1016.9
20260502061805 4 11 0.0 4.8 0.00 0.03 0.00 81 1016.9
20260502061305 4 69 1.6 4.8 0.00 0.03 0.00 80 1016.9
20260502060805 4 40 1.6 4.8 0.00 0.03 0.00 80 1016.9
20260502060305 4 43 1.6 4.8 0.00 0.03 0.00 80 1016.9
20260502055805 4 41 1.6 4.8 0.00 0.03 0.00 79 1017.0
20260502055306 4 36 1.6 4.8 0.00 0.03 0.00 79 1017.0
20260502054804 4 36 1.6 4.8 0.00 0.03 0.00 79 1017.0
20260502054305 4 355 1.6 4.8 0.00 0.03 0.00 79 1017.1
20260502053805 4 87 1.6 4.8 0.00 0.03 0.00 79 1017.1
20260502053305 4 26 3.2 9.7 0.00 0.03 0.00 79 1017.1
20260502051805 4 38 0.0 4.8 0.00 0.03 0.00 79 1017.0
20260502051305 4 65 1.6 4.8 0.00 0.03 0.00 79 1017.0
20260502050805 4 353 1.6 4.8 0.00 0.03 0.00 79 1016.9
20260502050305 4 330 1.6 3.2 0.00 0.03 0.00 80 1016.9
20260502045306 4 286 1.6 3.2 0.00 0.03 0.00 82 1016.8
20260502044305 3 322 1.6 4.8 0.00 0.03 0.00 84 1016.8
20260502043805 3 333 0.0 3.2 0.00 0.03 0.00 84 1016.7
20260502043305 3 49 0.0 0.0 0.00 0.03 0.00 85 1016.6
20260502042805 3 49 0.0 0.0 0.00 0.05 0.00 85 1016.6
20260502042306 3 49 0.0 0.0 0.00 0.05 0.00 85 1016.6
20260502040827 3 49 0.0 0.0 0.00 0.05 0.00 85 1016.4
20260502040306 3 49 0.0 0.0 0.00 0.05 0.00 85 1016.4
20260502035805 3 49 0.0 0.0 0.00 0.08 0.08 85 1016.4
20260502035306 3 49 0.0 1.6 0.00 0.08 0.08 85 1016.4
20260502034305 3 49 0.0 0.0 0.00 0.08 0.08 83 1016.4
20260502033305 3 49 0.0 0.0 0.00 0.08 0.08 83 1016.4
20260502032805 3 49 0.0 0.0 0.00 0.08 0.08 81 1016.3
20260502032306 3 49 0.0 0.0 0.00 0.08 0.08 80 1016.3
20260502031805 3 49 0.0 0.0 0.00 0.08 0.08 79 1016.3
20260502031305 4 49 0.0 0.0 0.00 0.08 0.08 79 1016.3
20260502030305 5 49 0.0 0.0 0.00 0.08 0.08 79 1016.3
20260502025805 5 49 0.0 0.0 0.00 0.08 0.08 78 1016.3
20260502025306 5 49 0.0 1.6 0.00 0.08 0.08 79 1016.3
20260502024805 5 49 0.0 0.0 0.00 0.08 0.08 78 1016.3
20260502024305 5 49 0.0 0.0 0.00 0.08 0.08 78 1016.3
20260502023805 5 49 0.0 0.0 0.00 0.08 0.08 78 1016.3
20260502022805 5 49 0.0 0.0 0.00 0.08 0.08 77 1016.2
20260502022306 5 49 0.0 1.6 0.00 0.08 0.08 77 1016.2
20260502021805 5 23 0.0 0.0 0.00 0.08 0.08 77 1016.2
20260502020805 5 23 0.0 0.0 0.00 0.08 0.08 77 1016.0
20260502020305 5 23 0.0 1.6 0.00 0.08 0.08 77 1016.0
20260502015804 5 23 1.6 3.2 0.00 0.08 0.08 75 1015.9
20260502015305 5 11 0.0 1.6 0.00 0.08 0.08 75 1015.8
20260502014304 5 28 0.0 1.6 0.00 0.08 0.08 76 1015.8
20260502013807 5 67 0.0 3.2 0.00 0.08 0.08 76 1015.8
20260502012805 5 335 0.0 1.6 0.00 0.08 0.08 77 1015.7
20260502012306 5 335 0.0 0.0 0.00 0.08 0.08 78 1015.7
20260502011805 5 335 0.0 0.0 0.00 0.08 0.08 77 1015.6
20260502010805 6 335 0.0 1.6 0.00 0.08 0.08 74 1015.5
20260502010304 6 335 0.0 1.6 0.00 0.08 0.08 74 1015.5